ASL765 LYBE-LTFM

Flight info

Callsign ASL765
Flight time N/A
Altitude 35000
Route TPL DCT NISVA DCT DEDIN DCT GERGI T391 AYTEK
Aircraft A319/M-SDE3FGHIRWY/LB1

Departure

Time 2026-04-30 14:38
Airport Belgrade Nikola Tesla Airport (LYBE)

Arrival

Time N/A
Airport İstanbul Airport (LTFM)
Time Latitude Longitude Altitude Speed Heading
2026-04-30 14:25 44.81978 20.29305 307 ft 0 kts 302°
2026-04-30 14:29 44.81973 20.29315 307 ft 2 kts 301°
2026-04-30 14:30 44.81940 20.29376 307 ft 2 kts 338°
2026-04-30 14:31 44.81926 20.29375 307 ft 0 kts 33°
2026-04-30 14:32 44.81927 20.29376 307 ft 2 kts 33°
2026-04-30 14:32 44.81961 20.29407 308 ft 8 kts 32°
2026-04-30 14:32 44.82024 20.29462 307 ft 13 kts 31°
2026-04-30 14:33 44.82108 20.29543 308 ft 16 kts 53°
2026-04-30 14:33 44.82000 20.29847 307 ft 22 kts 121°
2026-04-30 14:33 44.81915 20.30038 307 ft 24 kts 122°
2026-04-30 14:34 44.81841 20.30210 306 ft 20 kts 121°
2026-04-30 14:34 44.81766 20.30381 307 ft 21 kts 123°
2026-04-30 14:34 44.81682 20.30564 307 ft 23 kts 122°
2026-04-30 14:34 44.81592 20.30766 307 ft 26 kts 122°
2026-04-30 14:35 44.81421 20.31156 306 ft 30 kts 123°
2026-04-30 14:35 44.81293 20.31442 306 ft 25 kts 121°
2026-04-30 14:35 44.81198 20.31658 307 ft 27 kts 121°
2026-04-30 14:36 44.81113 20.31851 307 ft 22 kts 122°
2026-04-30 14:36 44.81033 20.32031 307 ft 20 kts 122°
2026-04-30 14:36 44.80998 20.32218 306 ft 21 kts 62°
2026-04-30 14:36 44.81129 20.32305 307 ft 23 kts 359°
2026-04-30 14:37 44.81264 20.32197 308 ft 24 kts 317°
2026-04-30 14:37 44.81316 20.32100 310 ft 0 kts 302°
2026-04-30 14:37 44.81332 20.32064 309 ft 22 kts 302°
2026-04-30 14:37 44.81534 20.31613 307 ft 86 kts 302°
2026-04-30 14:38 44.81959 20.30664 308 ft 142 kts 302°
2026-04-30 14:38 44.82520 20.29416 814 ft 149 kts 305°
2026-04-30 14:38 44.83053 20.28151 1493 ft 153 kts 302°
2026-04-30 14:38 44.83100 20.26510 1795 ft 193 kts 254°
2026-04-30 14:39 44.82180 20.24914 2186 ft 226 kts 224°
2026-04-30 14:39 44.80949 20.23357 2846 ft 246 kts 224°
2026-04-30 14:39 44.79661 20.21722 3820 ft 252 kts 225°
2026-04-30 14:40 44.77047 20.18348 5671 ft 261 kts 225°
2026-04-30 14:40 44.75715 20.16601 5930 ft 261 kts 225°
2026-04-30 14:40 44.74399 20.14859 6002 ft 259 kts 225°
2026-04-30 14:40 44.73089 20.13118 6006 ft 259 kts 226°
2026-04-30 14:41 44.71785 20.11380 6006 ft 258 kts 226°
2026-04-30 14:41 44.70477 20.09634 6008 ft 259 kts 226°
2026-04-30 14:41 44.69092 20.08030 6002 ft 260 kts 209°
2026-04-30 14:41 44.67341 20.07452 6004 ft 261 kts 176°
2026-04-30 14:42 44.65591 20.08277 6181 ft 278 kts 141°
2026-04-30 14:42 44.64145 20.10095 7101 ft 281 kts 133°
2026-04-30 14:42 44.62726 20.11958 8091 ft 284 kts 134°
2026-04-30 14:42 44.61268 20.13865 9148 ft 288 kts 134°
2026-04-30 14:43 44.59794 20.15790 10200 ft 291 kts 134°
2026-04-30 14:43 44.58298 20.17737 11095 ft 296 kts 134°
2026-04-30 14:43 44.56774 20.19720 11962 ft 301 kts 134°
2026-04-30 14:43 44.55220 20.21740 12808 ft 307 kts 134°
2026-04-30 14:44 44.53637 20.23796 13650 ft 313 kts 134°
2026-04-30 14:44 44.52024 20.25889 14440 ft 319 kts 134°
2026-04-30 14:44 44.50386 20.28013 15182 ft 324 kts 134°
2026-04-30 14:44 44.48723 20.30171 15935 ft 328 kts 135°
2026-04-30 14:45 44.47034 20.32361 16712 ft 333 kts 135°
2026-04-30 14:45 44.45321 20.34579 17467 ft 337 kts 136°
2026-04-30 14:45 44.43583 20.36829 18218 ft 342 kts 136°
2026-04-30 14:45 44.41821 20.39104 18907 ft 347 kts 136°
2026-04-30 14:46 44.40059 20.41382 19569 ft 351 kts 136°
2026-04-30 14:46 44.38259 20.43712 20249 ft 354 kts 136°
2026-04-30 14:46 44.36441 20.46066 20918 ft 358 kts 136°
2026-04-30 14:46 44.35226 20.47638 21353 ft 360 kts 135°
2026-04-30 14:47 44.32749 20.50834 22216 ft 365 kts 135°
2026-04-30 14:47 44.30875 20.53246 22869 ft 368 kts 135°
2026-04-30 14:47 44.28983 20.55679 23511 ft 372 kts 135°
2026-04-30 14:47 44.27068 20.58141 24084 ft 376 kts 136°
2026-04-30 14:48 44.25135 20.60625 24609 ft 380 kts 136°
2026-04-30 14:48 44.23184 20.63132 25135 ft 383 kts 136°
2026-04-30 14:48 44.21216 20.65657 25657 ft 387 kts 137°
2026-04-30 14:48 44.19226 20.68207 26176 ft 390 kts 137°
2026-04-30 14:49 44.17220 20.70773 26705 ft 394 kts 137°
2026-04-30 14:49 44.15222 20.73331 27224 ft 397 kts 136°
2026-04-30 14:49 44.13362 20.76199 27614 ft 404 kts 127°
2026-04-30 14:49 44.11613 20.79364 27751 ft 418 kts 127°
2026-04-30 14:50 44.07973 20.85990 28055 ft 442 kts 128°
2026-04-30 14:50 44.06086 20.89408 28390 ft 448 kts 128°
2026-04-30 14:51 44.02244 20.96346 29245 ft 456 kts 128°
2026-04-30 14:51 44.00300 20.99854 29676 ft 460 kts 128°
2026-04-30 14:51 43.96354 21.06957 30393 ft 469 kts 129°
2026-04-30 14:52 43.94377 21.10504 30708 ft 472 kts 130°
2026-04-30 14:52 43.90324 21.17761 31341 ft 479 kts 130°
2026-04-30 14:52 43.88272 21.21429 31664 ft 482 kts 130°
2026-04-30 14:53 43.84143 21.28795 32405 ft 485 kts 130°
2026-04-30 14:53 43.82070 21.32487 32857 ft 484 kts 130°
2026-04-30 14:54 43.77924 21.39855 33747 ft 484 kts 130°
2026-04-30 14:54 43.74485 21.45957 34455 ft 484 kts 130°
2026-04-30 14:55 43.70356 21.53282 35158 ft 483 kts 130°
2026-04-30 14:55 43.68287 21.56948 35233 ft 482 kts 130°
2026-04-30 14:55 43.63569 21.65273 35252 ft 469 kts 131°
2026-04-30 14:56 43.60203 21.71190 35261 ft 467 kts 131°
2026-04-30 14:57 43.54197 21.81717 35274 ft 467 kts 131°
2026-04-30 14:58 43.46147 21.95778 35272 ft 467 kts 131°
2026-04-30 14:58 43.40104 22.06285 35255 ft 467 kts 131°
2026-04-30 15:00 43.30007 22.23778 35246 ft 468 kts 133°
2026-04-30 15:01 43.21902 22.37728 35238 ft 469 kts 133°
2026-04-30 15:01 43.15801 22.48200 35234 ft 469 kts 133°
2026-04-30 15:02 43.11731 22.55175 35228 ft 469 kts 133°
2026-04-30 15:03 43.01497 22.72571 35210 ft 469 kts 134°
2026-04-30 15:04 42.93637 22.92171 35224 ft 479 kts 116°
2026-04-30 15:06 42.87109 23.13112 35212 ft 481 kts 117°
2026-04-30 15:07 42.81918 23.29858 35226 ft 482 kts 117°
2026-04-30 15:08 42.76653 23.46707 35220 ft 485 kts 117°
2026-04-30 15:09 42.70003 23.67840 35215 ft 487 kts 117°
2026-04-30 15:10 42.64625 23.84780 35221 ft 489 kts 117°
2026-04-30 15:11 42.56472 24.10270 35225 ft 492 kts 117°
2026-04-30 15:13 42.49647 24.31457 35203 ft 492 kts 118°
2026-04-30 15:14 42.39969 24.61122 35183 ft 492 kts 118°
2026-04-30 15:17 42.27445 24.99134 35184 ft 492 kts 118°
2026-04-30 15:19 42.16236 25.32711 35170 ft 491 kts 118°